Weather WX

World > North America > United States > New Jersey

Palmyra, New Jersey Regional Weather

Lat: 40.01N, Lon: 75.03W
Wx Zone: NJZ019
Warning FLW WEATHER ALERT - EXCESSIVE HEAT WARNING (More Info. Click Here) Warning
Feedback

Palmyra, NJ Regional Weather

Expires:201907171600;;785785
ASUS41 KOKX 171506
RWROKX

Regional Weather Roundup
National Weather Service New York NY
1100 AM EDT WED JUL 17 2019

Note: "FAIR" indicates few or no clouds below 12,000 feet with no
significant weather and/or obstructions to visibility.


NJZ001-105-106-008-010-013-015-019>022-104-171600-
New Jersey
  
CITY           SKY/WX    TMP DP  RH WIND       PRES   REMARKS
Newark/Liberty PTSUNNY   91  75  59 W9        29.94F HX 101           
Teterboro      FAIR      91  73  55 SW7       29.93F HX  99           
Caldwell       FAIR      91  74  57 VRB6      29.95F HX 100           
Somerville     FAIR      90  75  61 VRB5      29.94F HX 100           
Linden         FAIR      89  74  60 W9        29.95F HX  97           
Perth Amboy      N/A     86 N/A N/A W8          N/A                   
Sussex         FAIR      86  71  60 SW7       29.96F HX  91           
Andover          N/A     86  72  62 SW3       29.97F HX  92           
Trenton        FAIR      87  77  72 SW5       29.96F HX  99           
Millville      FAIR      89  77  67 W8        29.98F HX 101           
Atlantic City  FAIR      90  75  61 SW7       29.98F HX 100           
Wrightstown    FAIR      89  75  63 W5        29.95  HX  99           
Toms River     FAIR      93  79  63 W8        29.97F HX 110           
Belmar         FAIR      88  75  65 SW7       29.98F HX  97           
$$
 

SKY/WX - Weather  TMP - Temperature  DP - Dew Point  RH - Relative Humidity
WIND - Wind Direction/Speed PRES - Barometric Pressure VSB - Visibility
WCI - Wind Chill Index E13G22 Wind - East Wind 13 mph/Gusts of 22 mph